Location: *
(45.1961°N, 1.9694°E)
Time: 13:52:09
(UTC+00:00)

NOSS 3-1 (A) - Pass Details

Date: 25 August 2019
Orbit: 774 x 1439 km, 63.4° (Epoch: 03 September)

Event Time Altitude Azimuth Distance (km) Brightness Sun altitude
Rises 21:00:39 0° 322° (NW) 3,929 8.1 -21.9°
Reaches altitude 10° 21:03:12 10° 325° (NW) 3,059 7.2 -22.2°
Maximum altitude 21:10:40 70° 49° (NE) 1,362 4.1 -23.1°
Enters shadow 21:14:04 39° 120° (ESE) 1,897 4.5 -23.5°
